Voltar ao catálogo

IRIDIUM 33 DEB

AtivoPO
NORAD 34521·DEBRIS·🇺🇸 United States

Lançado Sep 14, 1997 de Baikonur Cosmodrome

Loading…

Próximas Passagens (próximas 24 horas)

TLE

AtualizadoSource: Space-Track

Época: Sep 14, 2026, 07:05 UTC

1 34521U 97051HN  26257.29579075  .00002865  00000-0  51420-3 0  9999
2 34521  86.3725 268.8672 0005300  67.4796 292.6978 14.66415051925073

Acompanhe IRIDIUM 33 DEB em tempo real com AllMySat

Download on the App Store